DEIMOS-2

Last updated on Fri Jul 10 2026 00:02:49 GMT+0000 (Coordinated Universal Time)

1 40013U 14033D 26190.28885759 .00000585 00000+0 60285-4 0 9991 2 40013 97.5807 63.9988 0001099 82.4063 277.7282 14.93788890641026
UTC large
Height (km)
Speed (km/s)
/
Latitude / Longitude
Inclination (degrees)
Orbital Period (minutes)
Azimuth
Elevation
Range (km)
Doppler Factor

Next 0 passes for location: London (51.5072 / 0.1276)

No passes found over London.
DEIMOS-2